#timestamp,LO_Frequency,Hit 
1498460415.7,286046928.5,N
1498460435.5,286046928.6,N
1498460455.4,286046926.9,N
1498460475.2,286046927.5,N
1498460495.0,286046925.5,N
1498460495.9,286046925.5,N
1498460515.8,286046925.9,N
1498460535.6,286046925.8,N
1498460555.4,286046925.1,N
1498460575.2,286046925.3,N
1498460595.1,286046925.1,N
1498460596.0,286046925.1,N
1498460615.8,286046922.9,N
1498460635.6,286046923.1,N
1498460655.5,286046925.1,N
1498460675.3,286046927.0,N
1498460695.1,286046927.6,N
1498460715.9,286046925.6,N
1498460735.7,286046922.9,N
1498460755.5,286046924.0,N
1498460775.4,286046924.3,N
1498460795.2,286046919.7,N
1498460815.0,286046922.0,N
1498460815.9,286046922.0,N
1498460835.8,286046922.4,N
1498460855.6,286046918.5,N
1498460875.4,286046919.9,N
1498460895.2,286046922.9,N
1498460915.1,286046924.0,N
1498460916.0,286046924.0,N
1498460935.8,286046921.9,N
1498460955.6,286046920.1,N
1498460975.5,286046918.2,N
1498460995.3,286046917.9,N
1498461015.1,286046915.6,N
1498461035.9,286046914.5,N
1498461055.7,286046912.1,N
1498461075.5,286046912.5,N
1498461095.4,286046912.6,N
1498461115.2,286046910.7,N
1498461135.0,286046915.6,N
1498461135.9,286046915.6,N
1498461155.8,286046917.5,N
1498461175.6,286046916.6,N
1498461195.4,286046917.3,N
1498461215.3,286046916.6,N
1498461235.1,286046919.1,N
1498461236.0,286046919.1,N
1498461255.8,286046918.9,N
1498461275.6,286046918.4,N
1498461295.5,286046918.8,N
1498461315.3,286046918.9,N
1498461335.1,286046916.6,N
1498461355.9,286046915.8,N
1498461375.7,286046912.3,N
1498461395.5,286046911.0,N
1498461415.4,286046908.5,N
1498461435.2,286046909.6,N
1498461455.0,286046908.1,N
1498461455.9,286046908.1,N
1498461475.8,286046909.8,N
1498461495.6,286046907.9,N
1498461515.4,286046907.9,N
1498461535.3,286046907.6,N
1498461555.1,286046906.4,N
1498461556.0,286046906.4,N
1498461575.8,286046903.7,N
1498461595.7,286046904.2,N
1498461615.5,286046903.8,N
1498461635.3,286046906.7,N
1498461655.1,286046905.7,N
1498461675.9,286046909.9,N
1498461695.7,286046911.2,N
1498461715.5,286046910.3,N
1498461735.4,286046908.9,N
1498461755.2,286046909.7,N
1498461775.0,286046909.7,N
1498461775.9,286046909.7,N
1498461795.8,286046909.7,N
1498461815.6,286046909.8,N
1498461835.4,286046909.9,N
1498461855.3,286046907.1,N
1498461875.1,286046906.9,N
1498461876.0,286046906.9,N
1498461895.8,286046909.1,N
1498461915.7,286046908.5,N
1498461935.5,286046909.3,N
1498461955.3,286046908.3,N
1498461975.1,286046903.9,N
1498461995.9,286046904.5,N
1498462015.7,286046906.4,N
1498462035.5,286046905.8,N
1498462055.4,286046905.4,N
1498462075.2,286046904.2,N
1498462095.0,286046904.9,N
1498462095.9,286046904.9,N
1498462115.8,286046902.3,N
1498462135.6,286046904.4,N
1498462155.4,286046902.2,N
1498462175.3,286046902.4,N
1498462195.1,286046902.4,N
1498462196.0,286046902.4,N
1498462215.8,286046903.0,N
1498462235.7,286046903.5,N
1498462255.5,286046900.6,N
1498462275.3,286046901.5,N
1498462295.1,286046899.3,N
1498462315.9,286046899.0,N
1498462335.7,286046899.6,N
1498462355.5,286046897.6,N
1498462375.4,286046897.9,N
1498462395.2,286046898.8,N
1498462415.0,286046895.0,N
1498462415.9,286046895.0,N
1498462435.8,286046892.5,N
1498462455.6,286046895.6,N
1498462475.4,286046895.4,N
1498462495.3,286046895.6,N
1498462515.1,286046893.2,N
1498462516.0,286046893.2,N
1498462535.8,286046893.6,N
1498462555.7,286046893.5,N
1498462575.5,286046889.6,N
1498462595.3,286046889.1,N
1498462615.1,286046884.7,N
1498462635.9,286046885.0,N
1498462655.8,286046887.2,N
1498462675.6,286046884.9,N
1498462695.4,286046886.3,N
1498462715.3,286046886.6,N
1498462735.1,286046888.8,N
1498462736.0,286046888.8,N
1498462755.8,286046890.8,N
1498462775.7,286046890.1,N
1498462795.6,286046890.3,N
1498462815.4,286046889.5,N
1498462835.2,286046892.0,N
1498462855.1,286046891.6,N
1498462856.0,286046891.6,N
1498462875.8,286046891.2,N
1498462895.6,286046894.0,N
1498462915.5,286046891.1,N
1498462935.3,286046890.9,N
1498462955.1,286046891.0,N
1498462975.9,286046893.8,N
1498462995.7,286046891.3,N
1498463015.5,286046889.8,N
1498463035.3,286046887.8,N
1498463055.2,286046887.7,N
1498463075.0,286046886.2,N
1498463075.9,286046886.2,N
1498463095.8,286046886.8,N
1498463115.6,286046887.5,N
1498463135.4,286046886.3,N
1498463155.2,286046886.7,N
1498463175.1,286046889.2,N
1498463176.0,286046889.2,N
1498463195.8,286046887.0,N
1498463215.6,286046886.9,N
1498463235.5,286046886.2,N
1498463255.3,286046886.2,N
1498463275.1,286046889.2,N
1498463295.9,286046886.6,N
1498463315.7,286046886.9,N
1498463335.5,286046883.4,N
1498463355.4,286046880.4,N
1498463375.2,286046880.3,N
1498463395.0,286046878.4,N
1498463395.9,286046878.4,N
1498463415.8,286046879.6,N
1498463435.6,286046878.9,N
1498463455.4,286046878.2,N
1498463475.2,286046878.6,N
1498463495.1,286046879.4,N
1498463496.0,286046879.4,N
1498463515.8,286046876.9,N
1498463535.6,286046876.7,N
1498463555.5,286046879.6,N
1498463575.3,286046877.3,N
1498463595.1,286046878.0,N
1498463615.9,286046876.6,N
1498463635.7,286046878.3,N
1498463655.5,286046878.9,N
1498463675.4,286046881.1,N
1498463695.2,286046879.9,N
1498463715.0,286046880.8,N
1498463715.9,286046880.8,N
1498463735.8,286046880.8,N
1498463755.6,286046878.4,N
1498463775.4,286046877.6,N
1498463795.3,286046875.0,N
1498463815.1,286046876.6,N
1498463816.0,286046876.6,N
1498463835.8,286046880.6,N
1498463855.6,286046880.9,N
1498463875.5,286046882.0,N
1498463895.3,286046881.3,N
1498463915.1,286046884.4,N
1498463935.9,286046884.2,N
1498463955.7,286046884.0,N
1498463975.5,286046884.3,N
1498463995.4,286046883.1,N
